Location: San Martino di Castrozza
(46.2667°N, 11.8000°E)
Time: 15:58:06
(UTC+00:00)

SL-4 R/B - Pass Details

Date: 23 April 2021
Orbit: 427 x 663 km, 51.6° (Epoch: 12 May)

Event Time Altitude Azimuth Distance (km) Brightness Sun altitude
Exits shadow 02:34:18 13° 182° (S) 1,837 4.3 -15.6°
Drops below altitude 10° 02:35:05 10° 175° (S) 2,055 4.6 -15.5°
Sets 02:37:46 0° 161° (SSE) 2,940 5.5 -15.1°
